SCP
-0 -0 0 -0 -0 0 -0 -0 0 0 0 -0 -0 -0 -0 0 0 0 0 -0 -0 -0 0 -0 -0 -0 -0 -0 -0 -0 -0 -0 -0 -0 -0 -0 -0 -0 -0 -0 -0 -0 -0 -0 -0 -0 -0 -0 -0
-0 -0 -0 0 -0 -0 -0 -0 0 0 0 -0 0 0 -0 0 0 -0 -0 0 -0 -0 -0 0 -0 -0 -0 -0 -0 -0 -0 -0 -0 -0 -0 -0 -0 -0 -0 -0 -0 -0 -0 -0 -0 -0 -0 -0 -0
0 0 0 -0 -0 -0 -0 -0 0 0 0 0 -0 0 0 0 0 -0 -0 -0 -0 -0 -0 0 -0 -0 -0 -0 -0 -0 -0 -0 -0 -0 -0 -0 -0 -0 -0 -0 -0 -0 -0 -0 -0 -0 -0 -0 -0
0 0 -0 -0 -0 -0 -0 -0 0 0 0 0 0 0 0 0 -0 -0 -0 -0 -0 -0 -0 -0 -0 -0 -0 -0 -0 -0 -0 -0 -0 -0 -0 -0 -0 -0 -0 -0 -0 -0 -0 -0 -0 -0 -0 -0 -0
0 0 0 0 0 0 0 -0 -0 0 0 0 0 0 0 0 0 -0 -0 -0 -0 -0 -0 -0 -0 -0 -0 -0 -0 -0 -0 -0 -0 -0 -0 -0 -0 -0 -0 -0 -0 -0 -0 -0 -0 -0 -0 -0 -0
0 0 0 0 0 0 0 -0 -0 0 0 0 0 0 0 0 0 0 0 0 0 -0 -0 -0 -0 -0 -0 -0 -0 -0 -0 -0 -0 -0 -0 -0 -0 -0 -0 -0 -0 -0 -0 -0 -0 -0 -0 -0 -0
0 0 0 0 0 0 0 0 0 0 0 0 0 0 0 0 0 0 0 0 0 0 0 0 0 -0 -0 -0 -0 -0 -0 -0 -0 -0 -0 -0 -0 -0 -0 -0 -0 -0 -0 -0 -0 -0 -0 -0 -0
0 0 0 0 0 0 0 0 0 0 0 0 0 0 0 0 0 0 0 0 0 0 0 0 0 0 0 0 -0 -0 -0 -0 -0 -0 -0 -0 -0 -0 -0 0 0 -0 -0 0 0 0 0 0 -0
0 0 0 0 0 0 0 0 0 0 0 0 0 0 0 0 0 0 0 0 0 0 0 0 0 0 0 0 0 0 -0 -0 -0 -0 -0 0 0 0 0 0 0 0 0 0 0 0 0 0 0
0 0 0 0 0 0 0 0 0 0 0 0 0 0 0 0 0 0 0 0 0 0 0 0 0 0 0 0 0 0 0 0 0 0 0 0 0 0 0 0 0 0 0 0 0 0 0 0 0
0 0 0 0 0 0 0 0 0 0 0 0 0 0 0 0 0 0 0 0 0 0 0 0 0 0 0 0 0 0 0 0 0 0 0 0 0 0 0 0 0 0 0 0 0 0 0 0 0
0 0 0 0 0 0 0 0 0 0 0 0 0 0 0 0 0 0 0 0 0 0 0 0 0 0 0 0 0 0 0 0 0 0 0 0 0 0 0 0 0 0 0 0 0 0 0 0 0
0 0 0 0 0 0 0 0 0 0 0 0 0 0 0 0 0 0 0 0 0 0 0 0 0 0 0 0 0 0 0 0 0 0 0 0 0 0 0 0 0 0 0 0 0 0 0 0 0
0 0 0 0 0 0 0 0 0 0 0 0 0 0 0 0 0 0 0 0 0 0 0 0 0 0 0 0 0 0 0 0 0 0 0 0 0 0 0 0 0 0 0 0 0 0 0 0 0
0 0 0 0 0 0 0 0 0 0 0 0 0 0 0 0 0 0 0 0 0 0 0 0 0 0 0 0 0 0 0 0 0 0 0 0 0 0 0 0 0 0 0 0 0 0 0 0 0
0 0 0 0 0 0 0 0 0 0 0 0 0 0 0 0 0 0 0 0 0 0 0 0 0 0 0 0 0 0 0 0 0 0 0 0 0 0 0 0 0 0 0 0 0 0 0 0 0
0 0 0 0 0 0 0 0 0 0 0 0 0 0 0 0 0 0 0 0 0 0 0 0 0 0 0 0 0 0 0 0 0 0 0 0 0 0 0 0 0 0 0 0 0 0 0 0 0
0 0 0 0 0 0 0 0 0 0 0 0 0 0 0 0 0 0 0 0 0 0 0 0 0 0 0 0 0 0 0 0 0 0 0 0 0 0 0 0 0 0 0 0 0 0 0 0 0
0 0 0 0 0 0 0 0 0 0 0 0 0 0 0 0 0 0 0 0 0 0 0 0 0 0 0 0 0 0 0 0 0 0 0 0 0 0 0 0 0 0 0 0 0 0 0 0 0
0 0 0 0 0 0 0 0 0 0 0 0 0 0 0 0 0 0 0 0 0 0 0 0 0 0 0 0 0 0 0 0 0 0 0 0 0 0 0 0 0 0 0 0 0 0 0 0 0
0 0 0 0 0 0 0 -0 0 0 0 0 0 0 0 0 0 0 0 0 0 0 0 0 0 0 0 0 0 0 0 0 0 0 0 0 0 0 0 0 0 0 0 0 0 0 0 0 0
0 0 0 0 0 0 0 -0 0 0 0 0 0 0 0 0 0 0 0 0 0 0 0 0 0 0 0 0 0 0 0 0 0 0 0 0 0 0 0 0 0 0 0 0 0 0 0 0 0
0 0 0 0 0 0 0 0 0 0 0 0 0 0 0 0 0 0 0 0 0 0 0 0 0 0 0 0 0 0 0 0 0 0 0 0 0 0 0 0 0 0 0 0 0 0 0 0 0
0 0 0 0 0 0 0 0 0 0 0 0 0 0 0 0 0 0 0 0 0 0 0 0 0 0 0 0 0 0 0 0 0 0 0 0 0 0 0 0 0 0 0 0 0 0 0 0 0
0 0 0 0 0 0 0 0 0 0 0 0 0 0 0 0 0 0 0 0 0 0 0 0 0 0 0 0 0 0 0 0 0 0 0 0 0 0 0 0 0 0 0 0 0 0 0 0 0
0 0 0 0 0 0 0 0 0 0 0 0 0 0 0 0 0 0 0 0 0 0 0 0 0 0 0 0 0 0 0 0 0 0 0 0 0 0 0 0 0 0 0 0 0 0 0 0 0
0 0 0 0 0 0 0 0 0 0 0 0 0 0 0 0 0 0 0 0 0 0 0 0 0 0 0 0 0 0 0 0 0 0 0 0 0 0 0 0 0 0 0 0 0 0 0 0 0
0 0 0 0 0 0 0 0 0 0 0 0 0 0 0 0 0 0 0 0 0 0 0 0 0 0 0 0 0 0 0 0 0 0 0 0 0 0 0 0 0 0 0 0 0 0 0 0 0
0 0 0 0 0 0 0 0 0 0 0 -0 0 0 0 0 0 0 0 0 0 0 0 0 0 0 0 0 0 0 0 0 0 0 0 0 0 0 0 0 0 0 0 0 0 0 0 0 0
0 0 0 0 0 0 0 0 0 0 0 0 0 0 0 0 0 0 0 0 0 0 0 0 0 0 0 0 0 0 0 0 0 0 0 0 0 0 0 0 0 0 0 0 0 0 0 0 0
Wind_Speed_500mb
5 6 9 5 8 11 3 4 3 3 6 15 29 32 22 14 5 8 24 19 14 23 29 27 27 24 22 21 20 18 17 14 14 12 15 18 20 21 20 23 21 20 19 19 18 16 18 21 26
7 7 4 6 10 8 7 2 9 5 29 44 32 22 23 8 14 20 9 15 18 24 28 26 26 25 23 21 18 17 14 12 12 11 12 17 21 20 23 24 21 19 19 18 17 14 15 18 21
6 5 4 9 8 9 9 7 11 13 36 10 12 21 9 4 10 15 18 24 22 22 29 27 27 26 24 23 20 18 13 10 10 11 9 13 18 22 25 25 22 21 19 19 17 16 16 18 19
2 4 8 10 8 3 15 13 15 14 10 13 34 17 13 6 7 16 27 28 22 23 23 26 27 26 25 24 21 18 16 12 12 15 8 12 16 20 23 25 24 21 20 20 20 19 17 17 19
6 5 8 8 3 4 4 20 21 9 9 16 9 11 14 25 28 26 33 30 26 25 24 23 23 23 20 26 24 20 18 14 16 14 5 7 12 15 20 22 22 21 20 20 20 19 17 16 16
5 5 9 4 4 4 5 18 15 10 16 19 18 19 15 26 27 30 30 30 28 27 28 26 27 26 24 22 22 20 18 14 15 13 5 4 7 12 18 20 20 20 20 20 20 19 18 17 13
11 8 9 8 9 4 8 12 10 14 16 8 29 12 19 31 30 29 31 34 37 33 29 25 25 26 26 23 23 23 19 17 16 14 7 3 2 9 15 19 21 19 20 21 20 20 20 18 13
6 9 5 4 10 8 6 7 16 21 8 19 22 15 15 41 38 33 31 31 40 40 33 28 27 27 27 24 22 20 20 17 17 15 11 11 6 9 14 16 22 20 18 18 19 19 19 17 14
4 9 2 1 11 8 16 7 8 13 19 10 11 22 28 48 42 38 40 40 40 42 35 34 36 35 31 27 27 25 23 20 19 18 17 15 9 7 12 11 20 25 23 24 21 20 19 17 15
9 7 11 4 5 7 13 11 18 12 13 8 17 28 45 48 43 41 39 41 41 44 47 43 35 36 37 33 28 24 26 26 22 20 23 18 11 11 6 6 14 20 23 26 26 21 21 19 16
5 9 7 3 4 10 14 7 14 18 7 21 32 39 41 44 44 45 44 42 42 44 46 46 42 41 40 38 34 32 28 28 26 26 23 26 18 19 15 7 7 11 16 16 22 23 19 21 19
3 3 6 8 6 6 10 7 8 18 13 19 27 35 40 43 43 43 42 41 39 37 39 42 40 39 46 47 40 37 40 37 32 29 26 31 27 29 15 16 8 7 2 6 7 11 15 16 16
5 2 5 5 7 8 10 13 14 18 21 20 28 35 35 37 39 42 43 42 39 38 37 37 38 40 43 56 51 40 37 37 36 31 30 30 32 28 29 21 13 4 6 7 3 3 3 5 8
7 3 8 10 18 11 11 9 9 13 32 32 34 36 36 36 36 39 40 38 35 32 32 32 34 38 45 50 53 48 42 41 40 36 32 34 35 37 36 20 13 9 8 9 7 9 6 7 9
1 7 10 22 19 10 12 14 21 30 36 41 40 39 38 38 39 38 35 35 32 30 29 29 30 33 40 49 50 50 50 42 33 34 35 47 41 43 31 19 13 15 18 10 9 6 7 8 12
5 6 5 7 19 8 17 19 11 29 47 50 45 45 44 45 42 43 41 38 35 33 31 31 32 35 40 47 50 51 50 44 43 33 34 40 40 24 18 24 21 18 10 10 12 9 5 6 3
9 7 10 16 22 9 9 16 7 19 48 49 50 50 50 47 49 49 45 42 38 35 33 33 34 36 41 47 49 49 49 48 44 37 32 29 26 26 26 25 19 15 14 14 12 7 4 12 17
11 9 9 12 7 6 11 27 12 22 40 54 55 55 56 57 59 53 49 44 39 36 34 32 31 33 40 45 50 52 49 48 44 42 38 35 30 29 27 24 20 20 20 17 9 10 16 19 20
8 8 10 6 8 9 17 29 30 38 46 51 58 60 66 68 59 55 51 46 41 38 34 30 30 37 47 50 50 52 52 47 47 43 38 35 32 28 22 24 22 21 19 17 19 19 20 21 19
11 9 20 14 11 15 19 31 24 19 32 64 75 78 78 74 69 64 58 50 44 38 35 33 32 41 48 51 61 61 53 51 50 45 39 32 29 28 30 29 27 23 25 29 25 20 19 23 14
14 15 10 17 7 7 11 22 23 20 55 70 79 91 79 89 87 76 65 56 48 45 40 37 38 47 55 61 60 59 57 56 52 47 42 37 34 34 33 31 32 32 26 23 19 15 13 14 17
12 15 13 12 2 13 6 27 12 14 27 26 74 72 77 79 86 77 69 61 54 47 41 44 46 52 54 59 61 62 59 59 56 51 45 42 41 41 40 37 33 28 22 17 14 14 12 13 14
14 7 9 5 5 7 8 10 5 12 15 25 49 57 65 83 86 90 76 62 52 51 51 50 51 54 61 61 66 64 63 58 55 52 53 51 51 47 42 35 29 23 19 15 14 14 13 14 15
11 11 12 9 4 14 20 17 57 16 30 29 37 39 60 73 81 86 73 61 57 55 56 56 59 61 65 63 65 61 60 57 58 60 60 61 58 50 41 33 25 20 16 14 14 15 16 19 21
9 14 4 6 2 16 7 19 44 16 15 18 18 31 46 64 79 87 77 68 64 66 64 63 64 63 64 64 62 60 59 60 62 65 67 65 57 48 39 30 23 18 14 12 13 12 15 18 18
15 16 11 14 9 10 4 17 13 13 32 30 28 38 45 61 77 85 78 71 67 69 69 70 69 68 67 63 61 60 62 63 64 65 63 57 51 44 37 29 21 16 13 10 10 12 14 18 19
11 16 14 6 4 3 11 15 20 25 20 18 22 27 50 66 77 83 78 71 70 74 74 72 72 70 68 65 64 63 66 68 69 65 58 53 47 42 36 28 20 16 12 8 10 12 13 14 15
12 11 5 2 4 12 11 15 22 15 21 16 11 28 42 60 71 77 76 72 73 77 77 74 72 70 69 68 66 69 73 73 70 66 62 55 47 40 33 26 22 16 11 9 8 8 9 11 13
7 8 7 9 10 10 6 13 14 17 17 18 19 46 52 62 72 75 75 72 73 78 81 80 79 78 75 73 73 80 83 78 73 66 60 53 47 39 33 28 21 14 10 8 4 3 5 6 8
5 11 14 10 11 10 4 29 3 12 11 18 25 41 48 54 63 67 72 74 76 79 84 83 81 80 78 77 81 85 82 78 73 68 62 55 49 43 35 29 22 16 13 9 4 1 2 5 8
Wind_Direction_500mb
162 165 154 139 62 66 2 6 166 67 56 72 86 99 104 67 56 152 151 184 194 174 166 163 162 158 154 147 141 136 130 130 114 93 79 54 44 48 43 39 40 45 50 54 58 73 89 102 106
126 137 119 92 87 72 282 235 124 145 123 106 92 86 52 53 75 124 143 147 156 168 170 168 165 163 162 158 153 147 146 134 124 111 87 48 51 49 42 43 45 53 53 51 54 64 84 99 113
108 94 78 92 114 154 169 213 169 142 153 168 109 76 81 56 109 153 157 149 149 164 174 171 168 170 171 169 165 162 159 150 143 140 98 46 50 46 42 39 42 50 51 51 54 63 74 92 112
122 77 69 85 118 220 161 195 178 141 122 97 121 73 87 107 132 138 160 156 155 166 174 174 172 171 177 177 172 170 168 165 167 155 112 52 48 45 43 41 46 51 51 50 51 56 69 90 116
61 63 56 86 38 125 172 174 159 147 109 117 139 138 111 114 126 138 161 158 167 169 166 172 179 178 173 174 179 178 177 172 168 173 144 60 54 47 43 44 46 49 52 55 58 64 74 89 108
84 66 62 141 192 216 224 153 146 144 122 121 107 113 144 142 147 149 160 173 178 166 172 186 198 193 187 188 188 191 189 184 184 180 181 82 63 46 42 45 45 49 53 57 58 61 69 79 97
107 83 171 141 172 191 208 137 112 151 133 93 142 115 154 159 167 160 174 174 172 171 183 197 195 197 199 199 196 195 199 194 188 194 200 183 106 50 43 51 51 53 57 60 64 66 66 71 82
94 92 95 155 184 210 221 118 120 160 116 128 164 166 179 170 176 171 176 179 182 179 184 190 181 200 199 200 203 201 205 202 201 203 202 195 231 75 60 58 61 54 57 59 58 59 64 71 75
86 65 126 213 160 203 175 138 141 147 142 142 155 158 158 170 176 181 187 189 192 198 185 187 193 200 204 204 203 204 208 215 208 199 202 223 170 127 83 59 63 57 53 52 56 56 62 66 71
80 97 203 189 181 202 179 179 157 158 143 108 134 148 160 176 182 187 197 198 198 201 203 206 198 201 205 203 212 209 211 213 214 211 206 212 200 182 146 94 53 52 61 51 50 57 57 60 64
126 160 209 185 126 166 163 155 175 148 227 199 187 169 173 183 191 200 206 208 210 209 210 213 215 209 204 201 201 211 212 217 211 209 217 206 198 198 166 184 78 46 60 57 34 46 53 51 51
92 245 210 186 169 154 172 190 204 200 215 220 215 191 184 189 199 208 214 217 216 218 218 218 215 211 210 204 201 205 213 211 209 212 218 217 204 193 197 186 176 166 22 141 19 45 51 40 35
162 291 230 233 213 210 207 218 221 227 209 191 183 190 193 195 203 211 218 225 228 228 225 220 215 210 208 203 206 204 212 212 213 214 214 212 197 230 196 188 180 208 273 253 232 297 101 10 329
174 230 268 268 247 231 201 225 216 230 200 194 198 203 207 210 212 213 215 218 218 218 219 220 219 215 211 207 204 207 212 215 219 214 205 222 217 214 195 186 202 204 244 247 306 296 268 328 329
303 314 317 232 224 225 199 286 233 231 202 202 205 212 215 218 218 221 216 213 212 213 214 214 216 215 210 207 202 203 209 200 209 210 214 202 221 214 222 204 215 241 270 228 292 213 228 288 312
18 49 334 290 155 226 157 262 260 221 204 205 209 214 220 224 225 220 219 220 219 221 224 226 226 222 213 206 197 202 208 212 208 211 208 207 200 208 238 247 250 244 223 223 209 214 265 296 60
3 244 220 309 191 142 169 261 276 223 204 211 214 220 223 220 220 221 220 222 224 227 230 234 235 223 215 204 194 202 206 206 206 206 205 200 215 218 224 228 215 222 204 194 193 216 167 124 116
202 221 245 234 209 155 220 259 252 206 211 222 223 224 224 223 225 223 223 226 228 228 230 232 233 221 202 200 196 197 200 202 198 193 195 204 206 207 203 211 203 199 195 197 185 145 131 126 122
160 197 247 238 215 174 229 242 254 223 226 234 234 230 229 228 224 224 224 226 227 226 225 226 225 207 192 191 190 193 191 191 183 181 183 190 205 190 189 176 179 188 193 170 153 144 133 130 133
229 235 261 297 233 186 253 247 244 206 229 232 235 237 233 226 218 218 220 223 226 225 218 214 207 191 188 194 195 191 185 178 179 176 180 178 184 185 183 176 176 173 166 152 145 133 129 120 141
233 213 237 229 320 241 305 269 246 241 234 246 246 248 241 230 218 213 215 219 219 216 212 204 196 191 193 191 193 190 184 175 175 171 173 175 179 177 177 171 164 156 152 147 135 118 109 97 94
229 204 210 242 258 265 125 290 215 230 235 228 243 237 230 228 223 219 217 217 216 210 202 192 194 191 188 189 188 188 187 180 175 174 173 177 174 170 164 162 158 155 150 137 117 90 68 55 48
229 181 211 260 242 340 186 291 149 201 243 247 245 240 228 232 226 215 215 216 212 206 198 191 193 192 193 193 196 191 191 182 175 176 172 172 165 164 162 161 158 153 139 122 102 86 67 54 48
136 78 44 50 43 267 195 185 281 216 224 247 256 240 237 227 218 214 212 210 207 200 195 193 193 195 194 196 191 194 192 188 185 178 174 170 166 164 162 160 154 142 127 107 85 61 50 44 37
120 108 299 323 331 248 283 213 251 304 280 234 254 239 229 223 213 205 202 202 201 197 193 192 195 197 196 195 192 194 196 190 184 180 176 171 168 165 161 156 148 138 119 93 69 58 52 48 35
193 159 163 216 216 275 331 242 251 241 266 279 273 259 223 209 207 203 202 203 203 199 193 195 198 198 196 193 193 192 194 192 186 179 177 174 173 169 163 161 155 146 129 112 87 64 46 39 29
192 205 188 84 104 345 227 289 277 251 274 269 260 213 202 200 202 203 202 205 203 200 197 199 200 198 197 196 196 196 197 192 184 179 179 179 176 171 167 164 162 159 147 115 77 51 31 25 21
160 174 90 69 203 246 273 271 236 270 248 245 222 209 201 203 204 206 207 207 205 203 199 201 204 204 203 201 202 199 193 189 185 185 183 182 178 176 173 173 174 168 147 108 79 39 20 23 13
140 199 200 140 161 200 282 255 216 241 258 239 218 217 211 207 207 209 209 210 210 206 203 204 205 205 206 207 202 194 190 189 190 189 185 183 182 180 180 179 177 165 141 125 102 40 8 357 353
344 201 178 174 222 235 141 264 180 240 270 220 236 223 217 215 213 214 213 211 209 207 206 205 207 209 211 207 199 194 193 193 193 190 188 188 187 183 185 184 179 171 170 171 176 207 311 334 335
Wind_Speed_850mb
5 6 9 5 8 11 3 4 3 3 6 15 29 32 22 14 5 8 24 19 14 23 29 27 27 24 22 21 20 18 17 14 14 12 15 18 20 21 20 23 21 20 19 19 18 16 18 21 26
7 7 4 6 10 8 7 2 9 5 29 44 32 22 23 8 14 20 9 15 18 24 28 26 26 25 23 21 18 17 14 12 12 11 12 17 21 20 23 24 21 19 19 18 17 14 15 18 21
6 5 4 9 8 9 9 7 11 13 36 10 12 21 9 4 10 15 18 24 22 22 29 27 27 26 24 23 20 18 13 10 10 11 9 13 18 22 25 25 22 21 19 19 17 16 16 18 19
2 4 8 10 8 3 15 13 15 14 10 13 34 17 13 6 7 16 27 28 22 23 23 26 27 26 25 24 21 18 16 12 12 15 8 12 16 20 23 25 24 21 20 20 20 19 17 17 19
6 5 8 8 3 4 4 20 21 9 9 16 9 11 14 25 28 26 33 30 26 25 24 23 23 23 20 26 24 20 18 14 16 14 5 7 12 15 20 22 22 21 20 20 20 19 17 16 16
5 5 9 4 4 4 5 18 15 10 16 19 18 19 15 26 27 30 30 30 28 27 28 26 27 26 24 22 22 20 18 14 15 13 5 4 7 12 18 20 20 20 20 20 20 19 18 17 13
11 8 9 8 9 4 8 12 10 14 16 8 29 12 19 31 30 29 31 34 37 33 29 25 25 26 26 23 23 23 19 17 16 14 7 3 2 9 15 19 21 19 20 21 20 20 20 18 13
6 9 5 4 10 8 6 7 16 21 8 19 22 15 15 41 38 33 31 31 40 40 33 28 27 27 27 24 22 20 20 17 17 15 11 11 6 9 14 16 22 20 18 18 19 19 19 17 14
4 9 2 1 11 8 16 7 8 13 19 10 11 22 28 48 42 38 40 40 40 42 35 34 36 35 31 27 27 25 23 20 19 18 17 15 9 7 12 11 20 25 23 24 21 20 19 17 15
9 7 11 4 5 7 13 11 18 12 13 8 17 28 45 48 43 41 39 41 41 44 47 43 35 36 37 33 28 24 26 26 22 20 23 18 11 11 6 6 14 20 23 26 26 21 21 19 16
5 9 7 3 4 10 14 7 14 18 7 21 32 39 41 44 44 45 44 42 42 44 46 46 42 41 40 38 34 32 28 28 26 26 23 26 18 19 15 7 7 11 16 16 22 23 19 21 19
3 3 6 8 6 6 10 7 8 18 13 19 27 35 40 43 43 43 42 41 39 37 39 42 40 39 46 47 40 37 40 37 32 29 26 31 27 29 15 16 8 7 2 6 7 11 15 16 16
5 2 5 5 7 8 10 13 14 18 21 20 28 35 35 37 39 42 43 42 39 38 37 37 38 40 43 56 51 40 37 37 36 31 30 30 32 28 29 21 13 4 6 7 3 3 3 5 8
7 3 8 10 18 11 11 9 9 13 32 32 34 36 36 36 36 39 40 38 35 32 32 32 34 38 45 50 53 48 42 41 40 36 32 34 35 37 36 20 13 9 8 9 7 9 6 7 9
1 7 10 22 19 10 12 14 21 30 36 41 40 39 38 38 39 38 35 35 32 30 29 29 30 33 40 49 50 50 50 42 33 34 35 47 41 43 31 19 13 15 18 10 9 6 7 8 12
5 6 5 7 19 8 17 19 11 29 47 50 45 45 44 45 42 43 41 38 35 33 31 31 32 35 40 47 50 51 50 44 43 33 34 40 40 24 18 24 21 18 10 10 12 9 5 6 3
9 7 10 16 22 9 9 16 7 19 48 49 50 50 50 47 49 49 45 42 38 35 33 33 34 36 41 47 49 49 49 48 44 37 32 29 26 26 26 25 19 15 14 14 12 7 4 12 17
11 9 9 12 7 6 11 27 12 22 40 54 55 55 56 57 59 53 49 44 39 36 34 32 31 33 40 45 50 52 49 48 44 42 38 35 30 29 27 24 20 20 20 17 9 10 16 19 20
8 8 10 6 8 9 17 29 30 38 46 51 58 60 66 68 59 55 51 46 41 38 34 30 30 37 47 50 50 52 52 47 47 43 38 35 32 28 22 24 22 21 19 17 19 19 20 21 19
11 9 20 14 11 15 19 31 24 19 32 64 75 78 78 74 69 64 58 50 44 38 35 33 32 41 48 51 61 61 53 51 50 45 39 32 29 28 30 29 27 23 25 29 25 20 19 23 14
14 15 10 17 7 7 11 22 23 20 55 70 79 91 79 89 87 76 65 56 48 45 40 37 38 47 55 61 60 59 57 56 52 47 42 37 34 34 33 31 32 32 26 23 19 15 13 14 17
12 15 13 12 2 13 6 27 12 14 27 26 74 72 77 79 86 77 69 61 54 47 41 44 46 52 54 59 61 62 59 59 56 51 45 42 41 41 40 37 33 28 22 17 14 14 12 13 14
14 7 9 5 5 7 8 10 5 12 15 25 49 57 65 83 86 90 76 62 52 51 51 50 51 54 61 61 66 64 63 58 55 52 53 51 51 47 42 35 29 23 19 15 14 14 13 14 15
11 11 12 9 4 14 20 17 57 16 30 29 37 39 60 73 81 86 73 61 57 55 56 56 59 61 65 63 65 61 60 57 58 60 60 61 58 50 41 33 25 20 16 14 14 15 16 19 21
9 14 4 6 2 16 7 19 44 16 15 18 18 31 46 64 79 87 77 68 64 66 64 63 64 63 64 64 62 60 59 60 62 65 67 65 57 48 39 30 23 18 14 12 13 12 15 18 18
15 16 11 14 9 10 4 17 13 13 32 30 28 38 45 61 77 85 78 71 67 69 69 70 69 68 67 63 61 60 62 63 64 65 63 57 51 44 37 29 21 16 13 10 10 12 14 18 19
11 16 14 6 4 3 11 15 20 25 20 18 22 27 50 66 77 83 78 71 70 74 74 72 72 70 68 65 64 63 66 68 69 65 58 53 47 42 36 28 20 16 12 8 10 12 13 14 15
12 11 5 2 4 12 11 15 22 15 21 16 11 28 42 60 71 77 76 72 73 77 77 74 72 70 69 68 66 69 73 73 70 66 62 55 47 40 33 26 22 16 11 9 8 8 9 11 13
7 8 7 9 10 10 6 13 14 17 17 18 19 46 52 62 72 75 75 72 73 78 81 80 79 78 75 73 73 80 83 78 73 66 60 53 47 39 33 28 21 14 10 8 4 3 5 6 8
5 11 14 10 11 10 4 29 3 12 11 18 25 41 48 54 63 67 72 74 76 79 84 83 81 80 78 77 81 85 82 78 73 68 62 55 49 43 35 29 22 16 13 9 4 1 2 5 8
Wind_Direction_850mb
162 165 154 139 62 66 2 6 166 67 56 72 86 99 104 67 56 152 151 184 194 174 166 163 162 158 154 147 141 136 130 130 114 93 79 54 44 48 43 39 40 45 50 54 58 73 89 102 106
126 137 119 92 87 72 282 235 124 145 123 106 92 86 52 53 75 124 143 147 156 168 170 168 165 163 162 158 153 147 146 134 124 111 87 48 51 49 42 43 45 53 53 51 54 64 84 99 113
108 94 78 92 114 154 169 213 169 142 153 168 109 76 81 56 109 153 157 149 149 164 174 171 168 170 171 169 165 162 159 150 143 140 98 46 50 46 42 39 42 50 51 51 54 63 74 92 112
122 77 69 85 118 220 161 195 178 141 122 97 121 73 87 107 132 138 160 156 155 166 174 174 172 171 177 177 172 170 168 165 167 155 112 52 48 45 43 41 46 51 51 50 51 56 69 90 116
61 63 56 86 38 125 172 174 159 147 109 117 139 138 111 114 126 138 161 158 167 169 166 172 179 178 173 174 179 178 177 172 168 173 144 60 54 47 43 44 46 49 52 55 58 64 74 89 108
84 66 62 141 192 216 224 153 146 144 122 121 107 113 144 142 147 149 160 173 178 166 172 186 198 193 187 188 188 191 189 184 184 180 181 82 63 46 42 45 45 49 53 57 58 61 69 79 97
107 83 171 141 172 191 208 137 112 151 133 93 142 115 154 159 167 160 174 174 172 171 183 197 195 197 199 199 196 195 199 194 188 194 200 183 106 50 43 51 51 53 57 60 64 66 66 71 82
94 92 95 155 184 210 221 118 120 160 116 128 164 166 179 170 176 171 176 179 182 179 184 190 181 200 199 200 203 201 205 202 201 203 202 195 231 75 60 58 61 54 57 59 58 59 64 71 75
86 65 126 213 160 203 175 138 141 147 142 142 155 158 158 170 176 181 187 189 192 198 185 187 193 200 204 204 203 204 208 215 208 199 202 223 170 127 83 59 63 57 53 52 56 56 62 66 71
80 97 203 189 181 202 179 179 157 158 143 108 134 148 160 176 182 187 197 198 198 201 203 206 198 201 205 203 212 209 211 213 214 211 206 212 200 182 146 94 53 52 61 51 50 57 57 60 64
126 160 209 185 126 166 163 155 175 148 227 199 187 169 173 183 191 200 206 208 210 209 210 213 215 209 204 201 201 211 212 217 211 209 217 206 198 198 166 184 78 46 60 57 34 46 53 51 51
92 245 210 186 169 154 172 190 204 200 215 220 215 191 184 189 199 208 214 217 216 218 218 218 215 211 210 204 201 205 213 211 209 212 218 217 204 193 197 186 176 166 22 141 19 45 51 40 35
162 291 230 233 213 210 207 218 221 227 209 191 183 190 193 195 203 211 218 225 228 228 225 220 215 210 208 203 206 204 212 212 213 214 214 212 197 230 196 188 180 208 273 253 232 297 101 10 329
174 230 268 268 247 231 201 225 216 230 200 194 198 203 207 210 212 213 215 218 218 218 219 220 219 215 211 207 204 207 212 215 219 214 205 222 217 214 195 186 202 204 244 247 306 296 268 328 329
303 314 317 232 224 225 199 286 233 231 202 202 205 212 215 218 218 221 216 213 212 213 214 214 216 215 210 207 202 203 209 200 209 210 214 202 221 214 222 204 215 241 270 228 292 213 228 288 312
18 49 334 290 155 226 157 262 260 221 204 205 209 214 220 224 225 220 219 220 219 221 224 226 226 222 213 206 197 202 208 212 208 211 208 207 200 208 238 247 250 244 223 223 209 214 265 296 60
3 244 220 309 191 142 169 261 276 223 204 211 214 220 223 220 220 221 220 222 224 227 230 234 235 223 215 204 194 202 206 206 206 206 205 200 215 218 224 228 215 222 204 194 193 216 167 124 116
202 221 245 234 209 155 220 259 252 206 211 222 223 224 224 223 225 223 223 226 228 228 230 232 233 221 202 200 196 197 200 202 198 193 195 204 206 207 203 211 203 199 195 197 185 145 131 126 122
160 197 247 238 215 174 229 242 254 223 226 234 234 230 229 228 224 224 224 226 227 226 225 226 225 207 192 191 190 193 191 191 183 181 183 190 205 190 189 176 179 188 193 170 153 144 133 130 133
229 235 261 297 233 186 253 247 244 206 229 232 235 237 233 226 218 218 220 223 226 225 218 214 207 191 188 194 195 191 185 178 179 176 180 178 184 185 183 176 176 173 166 152 145 133 129 120 141
233 213 237 229 320 241 305 269 246 241 234 246 246 248 241 230 218 213 215 219 219 216 212 204 196 191 193 191 193 190 184 175 175 171 173 175 179 177 177 171 164 156 152 147 135 118 109 97 94
229 204 210 242 258 265 125 290 215 230 235 228 243 237 230 228 223 219 217 217 216 210 202 192 194 191 188 189 188 188 187 180 175 174 173 177 174 170 164 162 158 155 150 137 117 90 68 55 48
229 181 211 260 242 340 186 291 149 201 243 247 245 240 228 232 226 215 215 216 212 206 198 191 193 192 193 193 196 191 191 182 175 176 172 172 165 164 162 161 158 153 139 122 102 86 67 54 48
136 78 44 50 43 267 195 185 281 216 224 247 256 240 237 227 218 214 212 210 207 200 195 193 193 195 194 196 191 194 192 188 185 178 174 170 166 164 162 160 154 142 127 107 85 61 50 44 37
120 108 299 323 331 248 283 213 251 304 280 234 254 239 229 223 213 205 202 202 201 197 193 192 195 197 196 195 192 194 196 190 184 180 176 171 168 165 161 156 148 138 119 93 69 58 52 48 35
193 159 163 216 216 275 331 242 251 241 266 279 273 259 223 209 207 203 202 203 203 199 193 195 198 198 196 193 193 192 194 192 186 179 177 174 173 169 163 161 155 146 129 112 87 64 46 39 29
192 205 188 84 104 345 227 289 277 251 274 269 260 213 202 200 202 203 202 205 203 200 197 199 200 198 197 196 196 196 197 192 184 179 179 179 176 171 167 164 162 159 147 115 77 51 31 25 21
160 174 90 69 203 246 273 271 236 270 248 245 222 209 201 203 204 206 207 207 205 203 199 201 204 204 203 201 202 199 193 189 185 185 183 182 178 176 173 173 174 168 147 108 79 39 20 23 13
140 199 200 140 161 200 282 255 216 241 258 239 218 217 211 207 207 209 209 210 210 206 203 204 205 205 206 207 202 194 190 189 190 189 185 183 182 180 180 179 177 165 141 125 102 40 8 357 353
344 201 178 174 222 235 141 264 180 240 270 220 236 223 217 215 213 214 213 211 209 207 206 205 207 209 211 207 199 194 193 193 193 190 188 188 187 183 185 184 179 171 170 171 176 207 311 334 335